MPEC 2002-A62: COMETS C/2002 A1, 2002 A2 (LINEAR)

The following Minor Planet Electronic Circular may be linked-to from your own Web pages, but must not otherwise be redistributed electronically.


Read MPEC 2002-A61 Read MPEC 2002-A63


M.P.E.C. 2002-A62                                Issued 2002 Jan. 11, 18:05 UT

     The Minor Planet Electronic Circulars contain information on unusual
         minor planets and routine data on comets.  They are published
   on behalf of Commission 20 of the International Astronomical Union by the
          Minor Planet Center, Smithsonian Astrophysical Observatory,
                          Cambridge, MA 02138, U.S.A.

             Prepared using the Tamkin Foundation Computer Network

                              MPC@CFA.HARVARD.EDU
          URL http://cfa-www.harvard.edu/iau/mpc.html  ISSN 1523-6714

                      COMETS C/2002 A1, 2002 A2 (LINEAR)

Observations:
    CK02A010  C2001 12 13.28196 07 18 57.75 +28 21 38.0          19.2 N      704
    CK02A010  C2001 12 13.29701 07 18 57.39 +28 21 41.0          19.5 N      704
    CK02A010  C2001 12 13.32726 07 18 56.66 +28 21 46.6          19.4 N      704
    CK02A010  C2001 12 13.34234 07 18 56.43 +28 21 51.4          19.4 N      704
    CK02A010  C2001 12 17.37699 07 17 26.27 +28 35 47.7          19.3 N      704
    CK02A010  C2001 12 17.39324 07 17 25.79 +28 35 50.7          19.4 N      704
    CK02A010  C2001 12 17.40840 07 17 25.40 +28 35 53.8          19.9 N      704
    CK02A010  C2001 12 17.43928 07 17 24.40 +28 36 00.0          20.4 N      704
    CK02A010  C2002 01 08.32291 07 07 18.51 +29 45 55.5          18.7 N      704
    CK02A010  C2002 01 08.33908 07 07 18.00 +29 45 57.7          19.5 N      704
    CK02A010  C2002 01 08.35481 07 07 17.48 +29 45 59.6          19.5 N      704
    CK02A010  C2002 01 08.37052 07 07 17.14 +29 46 03.8          19.6 N      704
    CK02A010  C2002 01 08.38627 07 07 16.66 +29 46 05.9          19.4 N      704
    CK02A010  C2002 01 09.85685 07 06 33.24 +29 50 09.7          18.3 N      046
    CK02A010  C2002 01 09.85957 07 06 33.18 +29 50 10.5                      046
    CK02A010  C2002 01 09.86131 07 06 33.10 +29 50 10.3                      046
    CK02A010  C2002 01 09.86318 07 06 33.04 +29 50 10.9                      046
    CK02A010  C2002 01 09.86491 07 06 32.98 +29 50 11.0                      046
    CK02A010  C2002 01 09.86671 07 06 32.96 +29 50 11.6          18.4 N      046
    CK02A010  C2002 01 09.95777 07 06 30.19 +29 50 26.2          18.7 N      621
    CK02A010  C2002 01 09.96160 07 06 30.09 +29 50 27.2          18.8 N      621
    CK02A010  C2002 01 09.96544 07 06 29.94 +29 50 27.5          18.8 N      621
    CK02A010  C2002 01 09.96928 07 06 29.82 +29 50 27.9          18.8 N      621
    CK02A010  C2002 01 10.84403 07 06 04.15 +29 52 50.8                      046
    CK02A010  C2002 01 10.84618 07 06 04.05 +29 52 51.4                      046
    CK02A010  C2002 01 10.84769 07 06 04.04 +29 52 51.9                      046
    CK02A010  C2002 01 10.84928 07 06 03.93 +29 52 51.6          18.4 N      046
    CK02A010  C2002 01 11.35623 07 05 48.96 +29 54 14.1                      696
    CK02A010  C2002 01 11.36042 07 05 48.87 +29 54 15.5                      696
    CK02A020  C2001 11 19.44595 07 20 54.87 +26 57 49.0          19.5 N      704
    CK02A020  C2001 11 19.46061 07 20 54.86 +26 57 53.3          19.5 N      704
    CK02A020  C2001 11 19.47567 07 20 54.77 +26 57 54.8          19.9 N      704
    CK02A020  C2001 11 19.49069 07 20 54.67 +26 57 58.1          19.9 N      704
    CK02A020  C2001 11 19.50538 07 20 54.67 +26 58 00.6          19.8 N      704
    CK02A020  C2001 12 13.28196 07 16 00.15 +28 16 37.8          19.2 N      704
    CK02A020  C2001 12 13.29701 07 15 59.76 +28 16 41.0          19.0 N      704
    CK02A020  C2001 12 13.31218 07 15 59.42 +28 16 44.6          19.4 N      704
    CK02A020  C2001 12 13.32726 07 15 59.03 +28 16 47.8          19.3 N      704
    CK02A020  C2001 12 13.34234 07 15 58.71 +28 16 51.7          19.6 N      704
    CK02A020  C2001 12 17.37699 07 14 26.86 +28 30 39.5          18.9 N      704
    CK02A020  C2001 12 17.39324 07 14 26.47 +28 30 43.2          19.3 N      704
    CK02A020  C2001 12 17.40840 07 14 26.09 +28 30 46.0          19.0 N      704
    CK02A020  C2001 12 17.42365 07 14 25.71 +28 30 50.0          19.3 N      704
    CK02A020  C2001 12 17.43928 07 14 25.29 +28 30 52.9          19.3 N      704
    CK02A020  C2001 12 18.27892 07 14 05.13 +28 33 44.4          18.7 N      644
    CK02A020  C2001 12 18.34893 07 14 03.34 +28 33 58.8          18.3 N      644
    CK02A020  C2001 12 18.41214 07 14 01.68 +28 34 11.8          18.3 N      644
    CK02A020  C2002 01 08.32291 07 04 14.25 +29 39 58.4          18.4 N      704
    CK02A020  C2002 01 08.33908 07 04 13.80 +29 40 01.5          18.8 N      704
    CK02A020  C2002 01 08.35481 07 04 13.36 +29 40 03.7          18.6 N      704
    CK02A020  C2002 01 08.37052 07 04 12.85 +29 40 06.7          18.8 N      704
    CK02A020  C2002 01 08.38627 07 04 12.42 +29 40 08.8          18.7 N      704
    CK02A020  C2002 01 09.84291 07 03 29.38 +29 44 07.9          17.6 N      046
    CK02A020  C2002 01 09.84561 07 03 29.32 +29 44 08.1                      046
    CK02A020  C2002 01 09.84774 07 03 29.24 +29 44 08.2                      046
    CK02A020  C2002 01 09.85141 07 03 29.12 +29 44 09.0                      046
    CK02A020  C2002 01 09.86205 07 03 28.82 +29 44 11.1          17.5 N      106
    CK02A020  C2002 01 09.87595 07 03 28.29 +29 44 14.0          18.2 N      157
    CK02A020  C2002 01 09.88568 07 03 28.09 +29 44 14.8          17.4 N      106
    CK02A020  C2002 01 09.90449 07 03 27.52 +29 44 18.1          18.1 N      157
    CK02A020  C2002 01 09.90930 07 03 27.38 +29 44 18.5          17.4 N      106
    CK02A020  C2002 01 09.93649 07 03 26.57 +29 44 23.0          18.0 N      621
    CK02A020  C2002 01 09.94032 07 03 26.47 +29 44 23.7          17.9 N      621
    CK02A020  C2002 01 09.94417 07 03 26.32 +29 44 24.5          18.0 N      621
    CK02A020  C2002 01 09.94801 07 03 26.22 +29 44 24.9          18.0 N      621
    CK02A020  C2002 01 10.82100 07 03 00.58 +29 46 44.9          17.9 N      113
    CK02A020  C2002 01 10.82447 07 03 00.44 +29 46 45.6          18.0 N      113
    CK02A020  C2002 01 10.82794 07 03 00.34 +29 46 46.5          18.2 N      113
    CK02A020  C2002 01 10.83141 07 03 00.22 +29 46 47.0          18.1 N      113
    CK02A020  C2002 01 10.83500 07 03 00.14 +29 46 47.4          17.8 N      113
    CK02A020  C2002 01 10.83551 07 03 00.10 +29 46 47.3          17.7 N      046
    CK02A020  C2002 01 10.83693 07 03 00.09 +29 46 47.8                      046
    CK02A020  C2002 01 10.83831 07 03 00.05 +29 46 47.9                      046
    CK02A020  C2002 01 10.83968 07 03 00.01 +29 46 48.3                      046
    CK02A020  C2002 01 10.84166 07 02 59.92 +29 46 48.6                      046
    CK02A020  C2002 01 10.92005 07 02 57.58 +29 47 01.0          18.1 N      106
    CK02A020  C2002 01 10.93696 07 02 57.07 +29 47 03.7          18.3 N      106
    CK02A020  C2002 01 10.94923 07 02 56.68 +29 47 05.7          17.8 N      106
    CK02A020  C2002 01 11.34619 07 02 45.00 +29 48 09.2                      696
    CK02A020  C2002 01 11.35079 07 02 44.85 +29 48 10.1                      696

Observer details:
046 Klet.  Observers M. Tichy, M. Kocer.  0.57-m f/5.2 reflector + CCD.
106 Crni Vrh.  Observer H. Mikuz.  0.36-m f/6.7 Schmidt-Cassegrain + CCD.
113 Volkssternwarte Drebach, Schoenbrunn.  Observer G. Lehmann.  0.50-m f/4.0
    reflector + CCD.
157 Frasso Sabino.  Observers R. Haver, A. Pelloni, F. Anzellini.  0.20-m f/6.3
     Schmidt-Cassegrain + CCD.
621 Bergisch Gladbach.  Observer W. Bickel.  0.60-m f/5.2 reflector + CCD.
644 Palomar Mountain/NEAT.  Observers E. F. Helin, S. Pravdo, K. Lawrence,
    M. Hicks, E. Hovland, T. Bickler, J. Schroeder, L. Scherr, R. Thicksten,
    A. Deetz.  1.2-m Schmidt + CCD.
696 Whipple Observatory, Mt. Hopkins.  Observers T. B. Spahr, P. Belind.
    1.2-m reflector + CCD.
704 Lincoln Laboratory ETS, New Mexico.  Observers M. Blythe, F. Shelly,
    M. Bezpalko, R. Huber, L. Manguso, S. Adams, J. Piscitelli.  Measurers
    J. Stuart, R. Sayer, J. B. Evans, H. Viggh.  1.0-m f/2.15 reflector + CCD.

    C/2002 A1 (LINEAR)
Epoch 2001 Nov. 27.0 TT = JDT 2452240.5
T 2001 Dec. 2.20523 TT                                  MPC
q   4.6985332            (2000.0)            P               Q
n   0.01256837     Peri.   19.17417     -0.18520173     -0.95237807
a  18.3210399      Node    82.07526     +0.86664118     -0.27449769
e   0.7435444      Incl.   14.15628     +0.46328542     +0.13276683
P  78.42
Residuals in seconds of arc
K01CD  704  0.4+  0.2+    K0218  704  1.0-  0.7-    K0219  621  0.1+  0.0
K01CD  704  0.0   0.0     K0218  704  0.8+  0.9+    K0219  621  0.4-  0.3-
K01CD  704  0.9-  0.7-    K0218  704  0.8+  0.4+    K0219  621  0.4-  0.5-
K01CD  704  0.4+  0.9+    K0219  046  0.0   0.2-    K021A  046  0.2+  0.1-
K01CH  704  0.9+  0.1+    K0219  046  0.3+  0.1+    K021A  046  0.2-  0.1+
K01CH  704  0.2-  0.3-    K0219  046  0.0   0.4-    K021A  046  0.2+  0.4+
K01CH  704  0.5-  0.3-    K0219  046  0.1-  0.1-    K021A  046  0.6-  0.2-
K01CH  704 (3.7-  0.4-)   K0219  046  0.2-  0.3-    K021B  696  0.2+  0.0
K0218  704  0.3-  0.5+    K0219  046  0.3+  0.0     K021B  696  0.7+  0.7+
K0218  704  0.5-  0.0     K0219  621  0.1-  0.4-

